Location: Julian California
(33.0790°N, 116.6010°W)
Time: 12:49:19
(UTC-08:00)

Atlas Centaur 2 - Pass Details

Date: 12 July 2018
Orbit: 459 x 1311 km, 30.4° (Epoch: 18 November)

Event Time Altitude Azimuth Distance (km) Brightness Sun altitude
Rises 22:46:27 0° 265° (W) 3,959 6.0 -27.4°
Reaches altitude 10° 22:49:31 10° 263° (W) 2,875 5.2 -27.8°
Enters shadow 22:55:26 59° 233° (SW) 1,044 2.5 -28.4°
